Flag for France Weather past 2 weeks in Paris, France

Now
77 °F

Warm.


Feels Like: 79 °F
Forecast: 55 / 68 °F
Wind: 10 mph from South

Location: Villacoublay

Current Time: Sep 20, 2014 at 6:01:55 PM

Latest Report: Sep 20, 2014 at 3:30 PM


Visibility: N/A

Pressure: 29.95 "Hg

Humidity: 54%

Dew point: 59 °F

Location of ParisLocation

Historic Weather in Paris — Graph

°F

Paris temperature yesterday

Maximum temperature yesterday: 79 °F (at 3:30 PM)
Minimum temperature yesterday: 61 °F (at 6:30 AM)
Average temperature yesterday: 68 °F

Past Weeks' High & Low Weather Summary

 TemperatureHumidityPressure
High79 °F (Sep 17, 5:00 PM)94% (Sep 6, 6:00 AM)30.18 "Hg (Sep 6, 6:00 AM)
Low54 °F (Sep 10, 5:00 AM)36% (Sep 9, 5:00 PM)29.74 "Hg (Sep 18, 7:30 AM)
Average66 °F68%29.99 "Hg
* Reported Sep 5 3:00 PM — Sep 20 3:00 PM, Paris, Weather by CustomWeather, © 2014

Note: Actual official high and low records may vary slightly from our data, if they occured in-between our weather recording intervals... More about our weather records

Advertising

Paris weather history for previous 24 hours

 ConditionsComfort  
Time TempWeatherWind HumidityBarometerVisibility
3:00 PM
Sep 20
77 °FClear.10 mph57%29.98 "HgN/A
2:30 PM77 °FPassing clouds.10 mph54%29.98 "HgN/A
2:00 PM79 °FBroken clouds.9 mph54%29.98 "HgN/A
1:30 PM77 °FClear.5 mph61%29.98 "HgN/A
1:00 PM75 °FClear.7 mph61%30.01 "HgN/A
12:30 PM75 °FClear.5 mph65%29.98 "HgN/A
12:00 PM73 °FClear.3 mph69%29.98 "HgN/A
11:30 AM70 °FClear.3 mph73%29.98 "HgN/A
11:00 AM68 °FClear.3 mph78%29.98 "HgN/A
10:30 AM66 °FClear.3 mph83%29.98 "HgN/A
10:00 AM64 °FClear.5 mph88%29.98 "HgN/A
9:30 AM61 °FClear.2 mph94%29.95 "HgN/A
9:00 AM61 °FPartly sunny.3 mph94%29.95 "HgN/A
8:30 AM61 °FLight rain. Partly cloudy.3 mph94%29.95 "Hg4 mi
8:00 AM61 °FThunderstorms. Passing clouds.6 mph94%29.98 "HgN/A
7:30 AM59 °FThunderstorms. Passing clouds.No wind94%29.95 "HgN/A
7:00 AM59 °FPassing clouds.3 mph94%29.95 "HgN/A
6:30 AM59 °FClear.3 mph94%29.95 "HgN/A
6:00 AM61 °FClear.3 mph88%29.95 "HgN/A
5:30 AM61 °FClear.3 mph88%29.95 "HgN/A
5:00 AM59 °FClear.No wind94%29.92 "HgN/A
4:30 AM61 °FClear.No wind88%29.92 "HgN/A
4:00 AM61 °FClear.1 mph88%29.92 "HgN/A
3:00 AM61 °FClear.No wind88%29.92 "HgN/A
2:30 AM61 °FClear.2 mph88%29.92 "HgN/A
2:00 AM61 °FClear.3 mph88%29.92 "HgN/A
1:30 AM63 °FClear.3 mph83%29.92 "HgN/A
1:00 AM63 °FClear.3 mph88%29.92 "HgN/A
12:30 AM64 °FClear.5 mph83%29.95 "HgN/A
12:00 AM64 °FClear.5 mph83%29.95 "HgN/A
11:30 PM
Sep 19
64 °FClear.3 mph83%29.95 "HgN/A
11:00 PM64 °FClear.5 mph83%29.95 "HgN/A
10:30 PM66 °FClear.3 mph78%29.92 "HgN/A
10:00 PM66 °FClear.3 mph83%29.92 "HgN/A
9:30 PM66 °FClear.5 mph83%29.92 "HgN/A
9:00 PM68 °FClear.5 mph78%29.92 "HgN/A
8:30 PM70 °FClear.3 mph73%29.89 "HgN/A
8:00 PM72 °FClear.6 mph69%29.89 "HgN/A
7:30 PM73 °FClear.6 mph69%29.89 "HgN/A
7:00 PM73 °FClear.7 mph69%29.86 "HgN/A
6:30 PM75 °FPartly sunny.8 mph65%29.86 "HgN/A
6:00 PM75 °FBroken clouds.8 mph65%29.86 "HgN/A
Weather by CustomWeather, © 2014

See weather overviewHow to use our weather pages